星链-4624 (STARLINK-4624 )

导读 | 豆包AI

STARLINK-4624是美国SpaceX公司星链计划中的一颗卫星,于2022年8月31日发射入轨,属于星链星座组网卫星,旨在为全球提供高速低延迟互联网宽带服务,依托可回收猎鹰九号火箭完成发射,是星链低轨星座建设进程中的一员,助力星链全球覆盖与服务能力拓展。

Basic Information
目录编号:
53684
目录名称:
STARLINK-4624
国际标识:
2022-105AN
轨道中心:
EARTH
卫星名称:
星链-4624
卫星全名:
星链-4624 (STARLINK-4624 )
卫星状态:
在轨 (已飞行1292 天)
发射日期:
2022-08-31 UTC
国别 :
美国 (US)
星等 :
--
Orbit Information
数据来源 国际轨道数据 AOE轨道数据
星历时间 2026-03-15T06:44:27+0800
10小时前
查看轨道信息
2026-03-12T09:00:00+0800
3天前
查看轨道信息
半长轴 6941.135km 6941.143km
偏心率 0.0003458 0.0003197
轨道倾角 97.603° 97.604°
近地点辐角 73.927° 63.375°
升交点赤经 315.426° 312.583°
平近点角 286.234° 81.693°
近地点 560.597km 560.786km
远地点 565.399km 565.226km
周期 95.919分钟 95.919分钟
每日圈数 15.012641 15.012614
Detailed Information
固有亮度:
5
最大亮度:
2.5
卫星平台:
Starlink v1.5
覆盖范围:
全球
运营商:
太空探索技术公司
运营商所在国:
美国
制造商(研发单位):
太空探索技术公司
制造商所在国:
美国
使用方式:
暂无
Satellite Introduction
星链(Starlink)计划是由太空探索技术公司(SpaceX)提出的一个巨型低轨卫星互联网星座项目,计划在2019年至2024年间在太空搭建由约1.2万颗卫星组成的“星链”网络,其中1584颗将部署在地球上空550千米处的近地轨道,并从2020年开始工作。该卫星仍在工作。
2D Orbit Map
3D Orbit Map
Orbit Altitude Analysis Chart
Orbit Inclination Analysis Chart
Orbit Comprehensive Analysis Chart
View Comprehensive Chart